| time (UTC) | temp F | wind direction | speed MPH | gust MPH | rain 1hr in | rain 24hr in | rain mn in | humidity % | barometer mb |
| 20260903083021 | 71 | 274 | 0.0 | 2.0 | 0.00 | 0.00 | 0.00 | 94 | 1015.1 |
| 20260903081518 | 71 | 274 | 0.0 | 1.0 | 0.00 | 0.00 | 0.00 | 93 | 1015.0 |
| 20260903080017 | 71 | 274 | 0.0 | 0.0 | 0.00 | 0.00 | 0.00 | 93 | 1014.9 |
| 20260903074515 | 72 | 274 | 1.0 | 2.0 | 0.00 | 0.00 | 0.00 | 93 | 1014.9 |
| 20260903073033 | 72 | 274 | 0.0 | 0.0 | 0.00 | 0.00 | 0.00 | 93 | 1014.9 |
| 20260903071515 | 72 | 274 | 0.0 | 0.0 | 0.00 | 0.00 | 0.00 | 93 | 1014.8 |
| 20260903070015 | 72 | 274 | 0.0 | 0.0 | 0.00 | 0.00 | 0.00 | 92 | 1014.7 |
| 20260903064512 | 73 | 274 | 1.0 | 2.0 | 0.00 | 0.00 | 0.00 | 92 | 1014.7 |
| 20260903063011 | 73 | 262 | 0.0 | 1.0 | 0.00 | 0.00 | 0.00 | 92 | 1014.9 |
| 20260903061523 | 73 | 262 | 0.0 | 0.0 | 0.00 | 0.00 | 0.00 | 92 | 1014.9 |
| 20260903060008 | 73 | 262 | 0.0 | 0.0 | 0.00 | 0.00 | 0.00 | 92 | 1014.9 |
| 20260903054508 | 73 | 262 | 0.0 | 0.0 | 0.00 | 0.00 | 0.00 | 91 | 1015.1 |
| 20260903053005 | 73 | 262 | 0.0 | 0.0 | 0.00 | 0.00 | 0.00 | 91 | 1015.1 |
| 20260903051504 | 74 | 262 | 0.0 | 0.0 | 0.00 | 0.00 | 0.00 | 90 | 1015.0 |
| 20260903050003 | 74 | 262 | 0.0 | 0.0 | 0.00 | 0.00 | 0.00 | 90 | 1015.0 |
| 20260903044501 | 74 | 262 | 0.0 | 0.0 | 0.00 | 0.00 | 0.00 | 90 | 1015.0 |
| 20260903043001 | 74 | 262 | 0.0 | 3.0 | 0.00 | 0.00 | 0.00 | 89 | 1015.0 |
| 20260903041559 | 74 | 256 | 0.0 | 4.0 | 0.00 | 0.00 | 0.00 | 89 | 1015.1 |
| 20260903040106 | 75 | 268 | 2.0 | 4.0 | 0.00 | 0.00 | 0.00 | 90 | 1015.0 |
| 20260903034553 | 76 | 287 | 0.0 | 1.0 | 0.00 | 0.00 | 0.00 | 88 | 1015.0 |
| 20260903033054 | 75 | 286 | 0.0 | 0.0 | 0.00 | 0.00 | 0.00 | 88 | 1014.9 |
| 20260903031552 | 76 | 286 | 0.0 | 0.0 | 0.00 | 0.00 | 0.00 | 87 | 1015.0 |
| 20260903030110 | 76 | 286 | 0.0 | 1.0 | 0.00 | 0.00 | 0.00 | 86 | 1014.8 |
| 20260903024551 | 77 | 286 | 0.0 | 0.0 | 0.00 | 0.00 | 0.00 | 87 | 1014.9 |
| 20260903023051 | 77 | 286 | 0.0 | 2.0 | 0.00 | 0.00 | 0.00 | 84 | 1014.9 |
| 20260903021550 | 78 | 310 | 0.0 | 0.0 | 0.00 | 0.00 | 0.00 | 84 | 1014.9 |
| 20260903020049 | 78 | 310 | 0.0 | 1.0 | 0.00 | 0.00 | 0.00 | 85 | 1014.9 |
| 20260903014558 | 79 | 310 | 0.0 | 1.0 | 0.00 | 0.00 | 0.00 | 83 | 1014.9 |
| 20260903013049 | 80 | 310 | 0.0 | 1.0 | 0.00 | 0.00 | 0.00 | 80 | 1014.7 |
| 20260903011605 | 80 | 310 | 0.0 | 2.0 | 0.00 | 0.00 | 0.00 | 80 | 1014.5 |
| 20260903010057 | 81 | 310 | 0.0 | 1.0 | 0.00 | 0.00 | 0.00 | 78 | 1014.4 |
| 20260903004547 | 81 | 310 | 0.0 | 1.0 | 0.00 | 0.00 | 0.00 | 81 | 1014.4 |
| 20260903003046 | 82 | 310 | 0.0 | 1.0 | 0.00 | 0.00 | 0.00 | 76 | 1014.3 |
| 20260903001546 | 84 | 310 | 0.0 | 1.0 | 0.00 | 0.00 | 0.00 | 73 | 1014.2 |
| 20260903000045 | 85 | 310 | 0.0 | 0.0 | 0.00 | 0.00 | 0.00 | 69 | 1014.0 |
| 20260902234544 | 88 | 310 | 0.0 | 2.0 | 0.00 | 0.00 | 0.00 | 66 | 1014.0 |
| 20260902233045 | 89 | 19 | 0.0 | 1.0 | 0.00 | 0.00 | 0.00 | 58 | 1014.1 |
| 20260902231600 | 90 | 29 | 0.0 | 3.0 | 0.00 | 0.00 | 0.00 | 55 | 1014.1 |
| 20260902230043 | 91 | 86 | 1.0 | 3.0 | 0.00 | 0.00 | 0.00 | 52 | 1014.1 |
| 20260902224555 | 92 | 118 | 2.0 | 4.0 | 0.00 | 0.00 | 0.00 | 51 | 1014.1 |
| 20260902223050 | 93 | 283 | 0.0 | 3.0 | 0.00 | 0.00 | 0.00 | 50 | 1014.4 |
| 20260902221549 | 93 | 43 | 3.0 | 5.0 | 0.00 | 0.00 | 0.00 | 49 | 1014.2 |
| 20260902220053 | 93 | 70 | 2.0 | 5.0 | 0.00 | 0.00 | 0.00 | 49 | 1014.4 |
| 20260902214538 | 93 | 87 | 1.0 | 4.0 | 0.00 | 0.00 | 0.00 | 48 | 1014.4 |
| 20260902213039 | 93 | 333 | 1.0 | 3.0 | 0.00 | 0.00 | 0.00 | 49 | 1014.3 |
| 20260902211537 | 92 | 81 | 3.0 | 5.0 | 0.00 | 0.00 | 0.00 | 52 | 1014.4 |
| 20260902210039 | 90 | 204 | 0.0 | 3.0 | 0.00 | 0.00 | 0.00 | 59 | 1014.5 |
| 20260902204535 | 93 | 358 | 0.0 | 3.0 | 0.00 | 0.00 | 0.00 | 50 | 1014.5 |
| 20260902203041 | 93 | 44 | 3.0 | 10.0 | 0.00 | 0.00 | 0.00 | 50 | 1014.6 |
| 20260902201543 | 95 | 354 | 2.0 | 9.0 | 0.00 | 0.00 | 0.00 | 51 | 1014.7 |
| 20260902200028 | 94 | 6 | 3.0 | 9.0 | 0.00 | 0.00 | 0.00 | 50 | 1015.0 |
| 20260902194532 | 95 | 107 | 2.0 | 6.0 | 0.00 | 0.00 | 0.00 | 47 | 1015.1 |
| 20260902193038 | 93 | 98 | 0.0 | 3.0 | 0.00 | 0.00 | 0.00 | 47 | 1015.3 |
| 20260902191522 | 93 | 204 | 0.0 | 7.0 | 0.00 | 0.00 | 0.00 | 47 | 1015.6 |
| 20260902190019 | 93 | 87 | 2.0 | 7.0 | 0.00 | 0.00 | 0.00 | 46 | 1015.8 |
| 20260902184520 | 93 | 345 | 1.0 | 8.0 | 0.00 | 0.00 | 0.00 | 48 | 1015.9 |
| 20260902183025 | 93 | 315 | 1.0 | 6.0 | 0.00 | 0.00 | 0.00 | 49 | 1016.2 |
| 20260902181516 | 93 | 17 | 2.0 | 7.0 | 0.00 | 0.00 | 0.00 | 47 | 1016.4 |
| 20260902180014 | 93 | 244 | 2.0 | 7.0 | 0.00 | 0.00 | 0.00 | 49 | 1016.4 |
| 20260902174512 | 92 | 75 | 4.0 | 9.0 | 0.00 | 0.00 | 0.00 | 51 | 1016.6 |
| 20260902173015 | 92 | 38 | 4.0 | 8.0 | 0.00 | 0.00 | 0.00 | 54 | 1016.8 |
| 20260902171510 | 91 | 71 | 3.0 | 9.0 | 0.00 | 0.00 | 0.00 | 54 | 1017.1 |
| 20260902170006 | 91 | 110 | 4.0 | 8.0 | 0.00 | 0.00 | 0.00 | 54 | 1017.1 |
| 20260902164505 | 91 | 96 | 2.0 | 7.0 | 0.00 | 0.00 | 0.00 | 58 | 1017.4 |
| 20260902163004 | 90 | 47 | 3.0 | 6.0 | 0.00 | 0.00 | 0.00 | 57 | 1017.5 |
| 20260902161501 | 89 | 40 | 1.0 | 5.0 | 0.00 | 0.00 | 0.00 | 62 | 1017.7 |
| 20260902160116 | 88 | 93 | 1.0 | 3.0 | 0.00 | 0.00 | 0.00 | 64 | 1017.8 |
| 20260902154559 | 88 | 58 | 3.0 | 5.0 | 0.00 | 0.00 | 0.00 | 64 | 1017.8 |
| 20260902153058 | 87 | 58 | 3.0 | 5.0 | 0.00 | 0.00 | 0.00 | 63 | 1018.1 |
| 20260902151554 | 85 | 117 | 0.0 | 5.0 | 0.00 | 0.00 | 0.00 | 70 | 1018.1 |
| 20260902150052 | 85 | 353 | 1.0 | 5.0 | 0.00 | 0.00 | 0.00 | 70 | 1018.1 |
| 20260902144551 | 84 | 31 | 1.0 | 4.0 | 0.00 | 0.00 | 0.00 | 71 | 1017.9 |
| 20260902143049 | 84 | 79 | 1.0 | 4.0 | 0.00 | 0.00 | 0.00 | 73 | 1018.0 |
| 20260902141545 | 82 | 62 | 2.0 | 4.0 | 0.00 | 0.00 | 0.00 | 75 | 1018.0 |
| 20260902140042 | 81 | 110 | 2.0 | 4.0 | 0.00 | 0.00 | 0.00 | 76 | 1017.8 |
| 20260902134550 | 81 | 73 | 1.0 | 5.0 | 0.00 | 0.00 | 0.00 | 77 | 1017.8 |
| 20260902133041 | 80 | 56 | 2.0 | 6.0 | 0.00 | 0.00 | 0.00 | 79 | 1017.9 |
| 20260902131543 | 79 | 29 | 2.0 | 6.0 | 0.00 | 0.00 | 0.00 | 81 | 1018.0 |
| 20260902130035 | 77 | 46 | 2.0 | 4.0 | 0.00 | 0.00 | 0.00 | 86 | 1018.0 |
| 20260902124530 | 75 | 54 | 1.0 | 4.0 | 0.00 | 0.00 | 0.00 | 91 | 1017.9 |
| 20260902123032 | 73 | 241 | 0.0 | 1.0 | 0.00 | 0.00 | 0.00 | 94 | 1017.9 |
| 20260902121524 | 72 | 241 | 0.0 | 1.0 | 0.00 | 0.00 | 0.00 | 95 | 1017.9 |
| 20260902120023 | 71 | 241 | 0.0 | 1.0 | 0.00 | 0.00 | 0.00 | 96 | 1017.6 |
| 20260902114522 | 70 | 241 | 0.0 | 0.0 | 0.00 | 0.00 | 0.00 | 96 | 1017.5 |
| 20260902113020 | 69 | 241 | 0.0 | 0.0 | 0.00 | 0.00 | 0.00 | 95 | 1017.3 |
| 20260902111519 | 70 | 241 | 0.0 | 0.0 | 0.00 | 0.00 | 0.00 | 96 | 1017.2 |
| 20260902110032 | 70 | 241 | 0.0 | 0.0 | 0.00 | 0.00 | 0.00 | 96 | 1017.1 |
| 20260902104518 | 70 | 241 | 0.0 | 0.0 | 0.00 | 0.00 | 0.00 | 96 | 1017.0 |
| 20260902103016 | 70 | 241 | 0.0 | 2.0 | 0.00 | 0.00 | 0.00 | 95 | 1016.7 |
| 20260902101514 | 70 | 241 | 1.0 | 2.0 | 0.00 | 0.00 | 0.00 | 95 | 1016.6 |
| 20260902100016 | 70 | 241 | 0.0 | 0.0 | 0.00 | 0.00 | 0.00 | 95 | 1016.5 |
| 20260902094511 | 70 | 241 | 0.0 | 0.0 | 0.00 | 0.00 | 0.00 | 95 | 1016.4 |
| 20260902093019 | 71 | 241 | 0.0 | 0.0 | 0.00 | 0.00 | 0.00 | 95 | 1016.3 |
| 20260902091510 | 71 | 241 | 0.0 | 2.0 | 0.00 | 0.00 | 0.00 | 95 | 1016.3 |
| 20260902090009 | 71 | 241 | 0.0 | 2.0 | 0.00 | 0.00 | 0.00 | 95 | 1016.3 |
| 20260902084508 | 71 | 241 | 0.0 | 3.0 | 0.00 | 0.00 | 0.00 | 94 | 1016.2 |